Back to catalog

DELTA 1 DEB

AliveLEO
NORAD 39102·DEBRIS·🇺🇸 United States

Launched Jul 14, 1977 from Cape Canaveral Space Force Station

Loading…

Next Passes (next 24 hours)

TLE

FreshSource: Space-Track

Epoch: Sep 13, 2026, 00:13 UTC

1 39102U 77065GP  26256.00933174  .00000288  00000-0  63107-4 0  9997
2 39102  28.9935  21.5864 0926390 239.4755 111.1163 13.03422234567278

Track DELTA 1 DEB in real time with AllMySat

Download on the App Store